Location: Meanaryar
(48.4161°N, 4.7315°W)
Time: 15:48:36
(UTC+00:00)

Okean 2 Rocket - Pass Details

Date: 18 September 2020
Orbit: 616 x 642 km, 82.5° (Epoch: 23 October)

Event Time Altitude Azimuth Distance (km) Brightness Sun altitude
Rises 19:40:27 0° 178° (S) 2,933 6.3 -13.2°
Reaches altitude 10° 19:42:42 10° 175° (S) 2,027 5.5 -13.6°
Maximum altitude 19:47:08 61° 95° (E) 727 3.1 -14.3°
Drops below altitude 10° 19:51:34 10° 16° (NNE) 2,030 5.8 -15.0°
Sets 19:53:50 0° 13° (NNE) 2,938 6.6 -15.3°
